Location: Bonaustraße
(48.4603°N, 11.9280°E)
Time: 22:48:22
(UTC+02:00)

Tiangong - Pass Details

Date: 02 October 2021
Orbit: 382 x 385 km, 41.5° (Epoch: 15 October)

Event Time Altitude Azimuth Distance (km) Brightness Sun altitude
Exits shadow 06:25:35 10° 239° (WSW) 1,402 3.4 -8.7°
Reaches altitude 10° 06:25:36 10° 239° (WSW) 1,398 3.3 -8.7°
Maximum altitude 06:28:05 21° 187° (S) 908 2.8 -8.3°
Drops below altitude 10° 06:30:35 10° 135° (SE) 1,396 4.5 -7.9°
Sets 06:32:55 0° 118° (ESE) 2,247 6.1 -7.5°
